TimeCDT,TemperatureF,Dew PointF,Humidity,Sea Level PressureIn,VisibilityMPH,Wind Direction,Wind SpeedMPH,Gust SpeedMPH,PrecipitationIn,Events,Conditions,WindDirDegrees,DateUTC
12:15 AM,24.8,10.4,54,30.11,10.0,Calm,Calm,-,N/A,,Clear,0,2013-03-21 05:15:00
12:35 AM,24.8,12.2,59,30.11,10.0,Calm,Calm,-,N/A,,Clear,0,2013-03-21 05:35:00
1:15 AM,21.2,12.2,68,30.11,10.0,Calm,Calm,-,N/A,,Clear,0,2013-03-21 06:15:00
1:35 AM,23.0,12.2,63,30.10,10.0,Calm,Calm,-,N/A,,Clear,0,2013-03-21 06:35:00
1:55 AM,21.2,12.2,68,30.10,10.0,Calm,Calm,-,N/A,,Clear,0,2013-03-21 06:55:00
2:15 AM,21.2,15.8,80,30.09,10.0,Calm,Calm,-,N/A,,Clear,0,2013-03-21 07:15:00
2:35 AM,24.8,10.4,54,30.09,10.0,Calm,Calm,-,N/A,,Clear,0,2013-03-21 07:35:00
2:55 AM,21.2,8.6,58,30.08,10.0,Calm,Calm,-,N/A,,Clear,0,2013-03-21 07:55:00
3:15 AM,21.2,10.4,63,30.08,10.0,Calm,Calm,-,N/A,,Clear,0,2013-03-21 08:15:00
3:35 AM,19.4,14.0,80,30.08,10.0,Calm,Calm,-,N/A,,Clear,0,2013-03-21 08:35:00
3:55 AM,19.4,12.2,74,30.08,10.0,Calm,Calm,-,N/A,,Clear,0,2013-03-21 08:55:00
4:15 AM,19.4,12.2,74,30.07,10.0,Calm,Calm,-,N/A,,Clear,0,2013-03-21 09:15:00
4:35 AM,21.2,10.4,63,30.08,10.0,NNW,3.5,-,N/A,,Clear,330,2013-03-21 09:35:00
4:55 AM,19.4,10.4,68,30.07,10.0,Calm,Calm,-,N/A,,Clear,0,2013-03-21 09:55:00
5:15 AM,19.4,12.2,74,30.08,10.0,West,3.5,-,N/A,,Clear,270,2013-03-21 10:15:00
5:35 AM,17.6,14.0,86,30.08,10.0,Calm,Calm,-,N/A,,Clear,0,2013-03-21 10:35:00
5:55 AM,19.4,10.4,68,30.08,10.0,Calm,Calm,-,N/A,,Clear,0,2013-03-21 10:55:00
6:15 AM,17.6,12.2,79,30.09,10.0,Calm,Calm,-,N/A,,Clear,0,2013-03-21 11:15:00
6:35 AM,19.4,10.4,68,30.09,10.0,Calm,Calm,-,N/A,,Clear,0,2013-03-21 11:35:00
6:55 AM,19.4,12.2,74,30.09,10.0,NNW,4.6,-,N/A,,Clear,330,2013-03-21 11:55:00
7:15 AM,19.4,10.4,68,30.09,10.0,NNW,4.6,-,N/A,,Clear,330,2013-03-21 12:15:00
7:35 AM,17.6,10.4,73,30.09,10.0,Calm,Calm,-,N/A,,Clear,0,2013-03-21 12:35:00
7:55 AM,21.2,12.2,68,30.10,10.0,Calm,Calm,-,N/A,,Clear,0,2013-03-21 12:55:00
8:15 AM,21.2,10.4,63,30.10,10.0,NNE,3.5,-,N/A,,Clear,20,2013-03-21 13:15:00
8:35 AM,23.0,10.4,59,30.11,10.0,NNE,6.9,-,N/A,,Clear,30,2013-03-21 13:35:00
8:55 AM,24.8,12.2,59,30.11,10.0,Calm,Calm,-,N/A,,Clear,0,2013-03-21 13:55:00
9:15 AM,24.8,12.2,59,30.11,10.0,Calm,Calm,-,N/A,,Clear,0,2013-03-21 14:15:00
9:35 AM,24.8,10.4,54,30.10,10.0,NW,3.5,-,N/A,,Clear,310,2013-03-21 14:35:00
9:55 AM,26.6,10.4,51,30.11,10.0,NW,3.5,-,N/A,,Clear,310,2013-03-21 14:55:00
10:15 AM,26.6,10.4,51,30.10,10.0,North,5.8,-,N/A,,Clear,360,2013-03-21 15:15:00
10:35 AM,28.4,10.4,47,30.10,10.0,West,3.5,-,N/A,,Clear,270,2013-03-21 15:35:00
10:55 AM,28.4,10.4,47,30.10,10.0,Calm,Calm,-,N/A,,Clear,0,2013-03-21 15:55:00
11:15 AM,30.2,10.4,44,30.10,10.0,NNE,5.8,-,N/A,,Clear,30,2013-03-21 16:15:00
11:35 AM,30.2,12.2,47,30.10,10.0,NNW,5.8,-,N/A,,Clear,340,2013-03-21 16:35:00
11:55 AM,32.0,10.4,41,30.09,10.0,NE,5.8,-,N/A,,Clear,40,2013-03-21 16:55:00
12:15 PM,32.0,10.4,41,30.09,10.0,ENE,5.8,-,N/A,,Clear,70,2013-03-21 17:15:00
12:35 PM,33.8,10.4,38,30.08,10.0,East,4.6,-,N/A,,Clear,90,2013-03-21 17:35:00
12:55 PM,33.8,10.4,38,30.07,10.0,NNE,5.8,-,N/A,,Clear,20,2013-03-21 17:55:00
1:15 PM,33.8,10.4,38,30.05,10.0,East,6.9,-,N/A,,Clear,80,2013-03-21 18:15:00
1:35 PM,35.6,10.4,35,30.05,10.0,NE,6.9,-,N/A,,Clear,50,2013-03-21 18:35:00
1:55 PM,35.6,10.4,35,30.03,10.0,ESE,5.8,-,N/A,,Clear,120,2013-03-21 18:55:00
2:15 PM,35.6,10.4,35,30.02,10.0,NE,5.8,-,N/A,,Clear,50,2013-03-21 19:15:00
2:35 PM,35.6,8.6,33,30.00,10.0,Calm,Calm,-,N/A,,Clear,0,2013-03-21 19:35:00
2:55 PM,35.6,12.2,38,29.99,10.0,South,3.5,-,N/A,,Clear,190,2013-03-21 19:55:00
3:15 PM,37.4,12.2,36,29.98,10.0,SE,4.6,-,N/A,,Clear,140,2013-03-21 20:15:00
3:35 PM,37.4,12.2,36,29.98,10.0,ESE,6.9,-,N/A,,Clear,120,2013-03-21 20:35:00
3:55 PM,37.4,12.2,36,29.98,10.0,ESE,5.8,-,N/A,,Clear,120,2013-03-21 20:55:00
4:15 PM,37.4,12.2,36,29.98,10.0,Calm,Calm,-,N/A,,Clear,0,2013-03-21 21:15:00
4:35 PM,37.4,10.4,33,29.98,10.0,Calm,Calm,-,N/A,,Mostly Cloudy,0,2013-03-21 21:35:00
4:55 PM,37.4,12.2,36,29.98,10.0,Calm,Calm,-,N/A,,Mostly Cloudy,0,2013-03-21 21:55:00
5:15 PM,37.4,12.2,36,29.98,10.0,East,3.5,-,N/A,,Partly Cloudy,80,2013-03-21 22:15:00
5:35 PM,37.4,14.0,38,29.98,10.0,East,5.8,-,N/A,,Scattered Clouds,90,2013-03-21 22:35:00
5:55 PM,37.4,14.0,38,29.98,10.0,East,6.9,-,N/A,,Partly Cloudy,90,2013-03-21 22:55:00
6:15 PM,37.4,14.0,38,29.98,10.0,East,6.9,-,N/A,,Mostly Cloudy,100,2013-03-21 23:15:00
6:35 PM,37.4,15.8,41,29.97,10.0,East,8.1,-,N/A,,Scattered Clouds,100,2013-03-21 23:35:00
6:55 PM,37.4,14.0,38,29.97,10.0,East,8.1,-,N/A,,Partly Cloudy,90,2013-03-21 23:55:00
7:15 PM,35.6,15.8,44,29.97,10.0,East,8.1,-,N/A,,Partly Cloudy,100,2013-03-22 00:15:00
7:35 PM,35.6,14.0,41,29.97,10.0,East,9.2,-,N/A,,Partly Cloudy,90,2013-03-22 00:35:00
7:55 PM,35.6,14.0,41,29.97,10.0,East,8.1,-,N/A,,Partly Cloudy,100,2013-03-22 00:55:00
8:15 PM,35.6,15.8,44,29.98,10.0,East,6.9,-,N/A,,Clear,100,2013-03-22 01:15:00
8:35 PM,35.6,15.8,44,29.98,10.0,East,4.6,-,N/A,,Scattered Clouds,100,2013-03-22 01:35:00
8:55 PM,35.6,17.6,48,29.98,10.0,East,5.8,-,N/A,,Partly Cloudy,100,2013-03-22 01:55:00
9:15 PM,35.6,17.6,48,29.99,10.0,SE,4.6,-,N/A,,Scattered Clouds,130,2013-03-22 02:15:00
9:35 PM,35.6,15.8,44,29.99,10.0,SE,6.9,-,N/A,,Scattered Clouds,130,2013-03-22 02:35:00
9:55 PM,35.6,15.8,44,29.99,10.0,ESE,5.8,-,N/A,,Mostly Cloudy,110,2013-03-22 02:55:00
10:15 PM,35.6,17.6,48,30.00,10.0,East,5.8,-,N/A,,Partly Cloudy,100,2013-03-22 03:15:00
10:35 PM,35.6,17.6,48,29.99,10.0,ESE,5.8,-,N/A,,Mostly Cloudy,110,2013-03-22 03:35:00
10:55 PM,35.6,17.6,48,29.99,10.0,SE,6.9,-,N/A,,Overcast,130,2013-03-22 03:55:00
11:15 PM,35.6,17.6,48,29.98,10.0,SE,8.1,-,N/A,,Overcast,140,2013-03-22 04:15:00
11:35 PM,33.8,19.4,56,29.99,10.0,SSE,8.1,-,N/A,,Overcast,150,2013-03-22 04:35:00
11:55 PM,33.8,19.4,56,29.99,10.0,South,5.8,-,N/A,,Overcast,170,2013-03-22 04:55:00